User: anonymous   Login
Location: Karcze
(52.0945°N, 22.4786°E)
Time: 00:04:46
(UTC+00:00)
Language:

Tiros 1 - Orbit

View from above orbital plane
View from above orbital plane
View from above satellite
View from above satellite

Ground track
Ground track

The orbit data is extracted from the following two-line orbital elements,

1    29U 60002B   21209.47457159 -.00000105  00000-0  15416-4 0  9993
2    29  48.3780 192.3601 0023841 171.2496 188.8836 14.74441813278571
Epoch (UTC): 28 July 2021 11:23:22
Eccentricity: 0.0023841
inclination: 48.3780°
perigee height: 630 km
apogee height: 663 km
right ascension of ascending node: 192.3601°
argument of perigee: 171.2496°
revolutions per day: 14.74441813
mean anomaly at epoch: 188.8836°
orbit number at epoch: 27857

The dashed part of the orbit path shows where the satellite is in the earth's shadow,  

DLR